Location: London
(51.5074°N, 0.1278°W)
Time: 07:23:04
(UTC+00:00)

TIGRISAT - Pass Details

Date: 04 October 2020
Orbit: 606 x 688 km, 97.7° (Epoch: 30 October)

Event Time Altitude Azimuth Distance (km) Brightness Sun altitude
Rises 22:46:17 0° 2° (N) 2,986 ? -36.8°
Reaches altitude 10° 22:49:07 10° 343° (NNW) 2,086 ? -37.1°
Enters shadow 22:51:56 17° 305° (NW) 1,658 ? -37.3°
